Regional Weather Roundup
Issued by NWS

Home | Current Version | Previous Version | Graphics & Text | Print | Product List | Glossary On
Versions: 1 2 3 4 5 6 7 8 9 10 11 12 13 14 15 16 17 18 19 20 21 22 23 24 25 26 27 28 29 30 31 32 33 34 35 36 37 38 39 40 41 42 43 44 45 46 47 48 49 50
000
ASUS43 KIND 151459
RWRIN

WEATHER ROUNDUP FOR INDIANA
NATIONAL WEATHER SERVICE INDIANAPOLIS IN
1100 AM EDT TUE APR 15 2014

NOTE: "FAIR" INDICATES FEW OR NO CLOUDS BELOW 12,000 FEET WITH NO
SIGNIFICANT WEATHER AND/OR OBSTRUCTIONS TO VISIBILITY.

* - STATION DOES NOT REPORT WEATHER SUCH AS PRECIPITATION OR FOG.

+ - STATION NOT QUALITY CONTROLLED BY THE NATIONAL WEATHER SERVICE.
    USE DATA WITH CAUTION...ESPECIALLY DEWPOINT AND RELATIVE
    HUMIDITY OBSERVATIONS.

INZ001>003-010>013-019-020-151600-
NORTHWEST INDIANA

CITY           SKY/WX    TMP DP  RH WIND       PRES   REMARKS
GARY /AIRPORT/ PTSUNNY   32  16  51 NW12G23   30.12R WCI  23
VALPARAISO     MIX PCPN  30  14  51 N16G25    30.10R WCI  19

$$

LMZ046-743>745-151600-
SOUTHERN LAKE MICHIGAN

STATION/POSITION TIME  TEMP WIND        PRES
                       AIR  DIR/SP/G
                 (UTC) (F)  (DEG/KT/KT) (MB)
MICHIGAN CITY    1400   29  320/ 22/ 28   N/A

$$

INZ004-005-014>016-021>024-151600-
NORTH CENTRAL INDIANA

CITY           SKY/WX    TMP DP  RH WIND       PRES   REMARKS
ELKHART        PTSUNNY   28  12  50 NW14G23   30.06R WCI  17
GOSHEN         PTSUNNY   29  15  56 NW16G26   30.05R WCI  17
SOUTH BEND     CLOUDY    31  14  49 NW20      30.07R WCI  19

$$

INZ006>009-017-018-025>027-151600-
NORTHEAST INDIANA

CITY           SKY/WX    TMP DP  RH WIND       PRES   REMARKS
ANGOLA *+      CLOUDY    27  18  69 NW12      30.01R WCI  16
FORT WAYNE     PTSUNNY   31  17  56 NW17G23   30.04R WCI  19

$$

INZ028-029-035-036-043>045-051>053-151600-
WEST CENTRAL INDIANA

CITY           SKY/WX    TMP DP  RH WIND       PRES   REMARKS
GREENCASTLE +  PTSUNNY   32  19  59 NW12G18   30.11R WCI  23
LAFAYETTE      CLOUDY    31  23  72 N15       30.12R WCI  20
TERRE HAUTE    PTSUNNY   34  20  56 N14G23    30.14R WCI  25

$$

INZ030>032-037>040-046>048-054>057-064-065-151600-
CENTRAL INDIANA

CITY           SKY/WX    TMP DP  RH WIND       PRES   REMARKS
COLUMBUS       CLOUDY    32  28  86 NW16      30.08R WCI  21
INDIANAPOLIS   PTSUNNY   32  23  69 NW16G25   30.08R WCI  21
-EAGLE CREEK   CLOUDY    31  25  78 N14G22    30.08R WCI  21
KOKOMO *+      CLOUDY    32  19  59 N17G23    30.07R WCI  21
MT COMFORT *+  CLOUDY    30  25  80 N13       30.08R WCI  20
SHELBYVILLE    CLOUDY    35  23  61 N16       30.07R WCI  25

$$

INZ033-034-041-042-049-050-058-059-151600-
EAST CENTRAL INDIANA

CITY           SKY/WX    TMP DP  RH WIND       PRES   REMARKS
MUNCIE         MOSUNNY   31  20  63 N14G24    30.05R WCI  21

$$

INZ060-061-067>069-081>083-085>088-151600-
SOUTHWEST INDIANA

CITY           SKY/WX    TMP DP  RH WIND       PRES   REMARKS
EVANSVILLE     PTSUNNY   39  24  55 N18G24    30.16R
HUNTINGBURG *+ PTSUNNY   37  23  56 N16G25    30.13R

$$

INZ062-063-066-070>080-084-089>092-151600-
SOUTH CENTRAL AND SOUTHEAST INDIANA

CITY           SKY/WX    TMP DP  RH WIND       PRES   REMARKS
BLOOMINGTON    PTSUNNY   36  23  59 NW8G23    30.09R

$$




USA.gov is the U.S. government's official web portal to all federal, state and local government web resources and services.